Location: Taupo
(38.6830°S, 176.0830°E)
Time: 15:01:17
(UTC+13:00)

Lacrosse 5 - Pass Details

Date: 24 January 2019
Orbit: 715 x 724 km, 57.0° (Epoch: 08 October)

Event Time Altitude Azimuth Distance (km) Brightness Sun altitude
Rises 21:09:14 0° 221° (SW) 3,161 6.9 -6.3°
Reaches altitude 10° 21:11:40 10° 218° (SW) 2,233 5.8 -6.7°
Maximum altitude 21:16:48 68° 135° (SE) 785 2.0 -7.6°
Enters shadow 21:21:49 10° 52° (NE) 2,187 3.7 -8.4°
